Location: Pedimozza
(42.0500°N, 9.3500°E)
Time: 04:00:29
(UTC+00:00)

Mayak - Pass Details

Date: 19 August 2019
Orbit: 581 x 603 km, 97.6° (Epoch: 15 September)

Event Time Altitude Azimuth Distance (km) Brightness Sun altitude
Rises 22:12:48 0° 9° (N) 2,839 3.0 -32.8°
Reaches altitude 10° 22:14:59 10° 8° (N) 1,929 2.0 -32.9°
Enters shadow 22:16:25 21° 5° (N) 1,350 1.1 -33.0°
